,,,PA_Meas_PMT16A,,PR_Meas_QMR101_102,,RH_Meas_QMH101,,SR_Meas_QMS101,,TA_Meas_QMH101,,GenWind,,GenWind,
date,time,status,PA,status,PR,status,RH,status,SR,status,TA,status,DirAvg,status,SpdAvg,
2010-07-14, 00:00:04,VALID,1009.2,VALID,0,VALID,102.307,VALID,0,VALID,24.6099,VALID,130,VALID,0.45,
2010-07-14, 00:01:04,VALID,1009.18,VALID,0,VALID,102.36,VALID,0,VALID,24.6099,VALID,129,VALID,0.364062,
2010-07-14, 00:02:04,VALID,1009.15,VALID,0,VALID,102.368,VALID,0,VALID,24.5886,VALID,130,VALID,0.0382813,
2010-07-14, 00:03:04,VALID,1009.1,VALID,0,VALID,102.368,VALID,0,VALID,24.5905,VALID,129,VALID,0,
2010-07-14, 00:04:04,VALID,1009.06,VALID,0,VALID,102.376,VALID,0,VALID,24.6099,VALID,130,VALID,0,
2010-07-14, 00:05:04,VALID,1009.02,VALID,0,VALID,102.406,VALID,0,VALID,24.6099,VALID,130,VALID,0,
2010-07-14, 00:06:04,VALID,1009,VALID,0,VALID,102.437,VALID,0,VALID,24.6099,VALID,129,VALID,0,
2010-07-14, 00:07:04,VALID,1009.04,VALID,0,VALID,102.452,VALID,0,VALID,24.6099,VALID,355,VALID,0.398047,
2010-07-14, 00:08:04,VALID,1009.04,VALID,0,VALID,102.475,VALID,0,VALID,24.6099,VALID,355,VALID,0.19375,
2010-07-14, 00:09:04,VALID,1009.04,VALID,0,VALID,102.513,VALID,0.105969,VALID,24.5886,VALID,355,VALID,0.381641,
2010-07-14, 00:10:04,VALID,1009.05,VALID,0,VALID,102.544,VALID,0,VALID,24.571,VALID,355,VALID,0.315234,
2010-07-14, 00:11:04,VALID,1009.1,VALID,0,VALID,102.559,VALID,0,VALID,24.571,VALID,355,VALID,0.169141,
2010-07-14, 00:12:04,VALID,1009.1,VALID,0,VALID,102.559,VALID,0,VALID,24.5496,VALID,355,VALID,0.400391,
2010-07-14, 00:13:04,VALID,1009.17,VALID,0,VALID,102.559,VALID,0,VALID,24.5515,VALID,355,VALID,0.535547,
2010-07-14, 00:14:04,VALID,1009.18,VALID,0,VALID,102.612,VALID,0,VALID,24.5515,VALID,355,VALID,0.596094,
2010-07-14, 00:15:04,VALID,1009.21,VALID,0,VALID,102.612,VALID,0.105969,VALID,24.532,VALID,4,VALID,0.275781,
2010-07-14, 00:16:04,VALID,1009.24,VALID,0,VALID,102.627,VALID,0,VALID,24.532,VALID,4,VALID,0,
2010-07-14, 00:17:04,VALID,1009.24,VALID,0,VALID,102.612,VALID,0,VALID,24.532,VALID,4,VALID,0,
2010-07-14, 00:18:04,VALID,1009.25,VALID,0,VALID,102.666,VALID,0,VALID,24.5106,VALID,338,VALID,0.26875,
2010-07-14, 00:19:04,VALID,1009.25,VALID,0,VALID,102.666,VALID,0,VALID,24.5515,VALID,338,VALID,0.110547,
2010-07-14, 00:20:04,VALID,1009.25,VALID,0,VALID,102.673,VALID,0.105969,VALID,24.5125,VALID,338,VALID,0.243359,
2010-07-14, 00:21:04,VALID,1009.24,VALID,0,VALID,102.673,VALID,0.105969,VALID,24.532,VALID,347,VALID,0,
2010-07-14, 00:22:04,VALID,1009.25,VALID,0,VALID,102.696,VALID,0,VALID,24.5515,VALID,347,VALID,0,
2010-07-14, 00:23:04,VALID,1009.25,VALID,0,VALID,102.681,VALID,0.105969,VALID,24.5301,VALID,349,VALID,0.264844,
2010-07-14, 00:24:04,VALID,1009.24,VALID,0,VALID,102.727,VALID,0,VALID,24.532,VALID,6,VALID,0.00195313,
2010-07-14, 00:25:04,VALID,1009.27,VALID,0,VALID,102.711,VALID,0,VALID,24.532,VALID,328,VALID,0.428125,
2010-07-14, 00:26:04,VALID,1009.3,VALID,0,VALID,102.711,VALID,0.105969,VALID,24.532,VALID,41,VALID,0.525,
2010-07-14, 00:27:04,VALID,1009.33,VALID,0,VALID,102.727,VALID,0,VALID,24.4911,VALID,339,VALID,0.794922,
2010-07-14, 00:28:04,VALID,1009.35,VALID,0,VALID,102.711,VALID,0.105969,VALID,24.4717,VALID,42,VALID,0.280859,
2010-07-14, 00:29:04,VALID,1009.4,VALID,0,VALID,102.696,VALID,0,VALID,24.532,VALID,33,VALID,0.297266,
2010-07-14, 00:30:04,VALID,1009.39,VALID,0,VALID,102.704,VALID,0,VALID,24.5125,VALID,331,VALID,0.544141,
2010-07-14, 00:31:04,VALID,1009.42,VALID,0,VALID,102.719,VALID,0,VALID,24.5125,VALID,328,VALID,0.220703,
2010-07-14, 00:32:04,VALID,1009.39,VALID,0,VALID,102.704,VALID,0,VALID,24.532,VALID,328,VALID,0,
2010-07-14, 00:33:04,VALID,1009.4,VALID,0,VALID,102.711,VALID,0.105969,VALID,24.5106,VALID,327,VALID,0,
2010-07-14, 00:34:04,VALID,1009.37,VALID,0,VALID,102.734,VALID,0,VALID,24.5125,VALID,19,VALID,0.816016,
2010-07-14, 00:35:04,VALID,1009.36,VALID,0,VALID,102.765,VALID,0,VALID,24.4735,VALID,6,VALID,0.511719,
2010-07-14, 00:36:04,VALID,1009.35,VALID,0,VALID,102.757,VALID,0,VALID,24.4735,VALID,309,VALID,0.875391,
2010-07-14, 00:37:04,VALID,1009.33,VALID,0,VALID,102.742,VALID,0,VALID,24.4735,VALID,321,VALID,0.471875,
2010-07-14, 00:38:04,VALID,1009.33,VALID,0,VALID,102.742,VALID,0,VALID,24.4735,VALID,42,VALID,0.48125,
2010-07-14, 00:39:04,VALID,1009.33,VALID,0,VALID,102.749,VALID,0,VALID,24.454,VALID,331,VALID,0.702734,
2010-07-14, 00:40:04,VALID,1009.34,VALID,0,VALID,102.765,VALID,0,VALID,24.454,VALID,347,VALID,0.526563,
2010-07-14, 00:41:04,VALID,1009.28,VALID,0,VALID,102.704,VALID,0,VALID,24.4327,VALID,286,VALID,0.730078,
2010-07-14, 00:42:04,VALID,1009.3,VALID,0,VALID,102.719,VALID,0,VALID,24.454,VALID,25,VALID,0.644922,
2010-07-14, 00:43:04,VALID,1009.31,VALID,0,VALID,102.719,VALID,0,VALID,24.4345,VALID,53,VALID,0.440234,
2010-07-14, 00:44:04,VALID,1009.33,VALID,0,VALID,102.696,VALID,0,VALID,24.454,VALID,266,VALID,0.857031,
2010-07-14, 00:45:04,VALID,1009.31,VALID,0,VALID,102.681,VALID,0,VALID,24.4717,VALID,322,VALID,0.267969,
2010-07-14, 00:46:04,VALID,1009.35,VALID,0,VALID,102.65,VALID,0,VALID,24.493,VALID,70,VALID,0.591406,
2010-07-14, 00:47:04,VALID,1009.29,VALID,0,VALID,102.658,VALID,0,VALID,24.5125,VALID,201,VALID,0.261328,
2010-07-14, 00:48:04,VALID,1009.29,VALID,0,VALID,102.65,VALID,0,VALID,24.532,VALID,192,VALID,0.0648438,
2010-07-14, 00:49:04,VALID,1009.26,VALID,0,VALID,102.666,VALID,0,VALID,24.5125,VALID,259,VALID,0.451562,
2010-07-14, 00:50:04,VALID,1009.23,VALID,0.5,VALID,102.673,VALID,0,VALID,24.493,VALID,325,VALID,0.782812,
2010-07-14, 00:51:04,VALID,1009.23,VALID,0,VALID,102.574,VALID,0,VALID,24.4735,VALID,334,VALID,0.996484,
2010-07-14, 00:52:04,VALID,1009.2,VALID,0,VALID,102.444,VALID,0,VALID,24.5125,VALID,354,VALID,0.538672,
2010-07-14, 00:53:04,VALID,1009.2,VALID,0,VALID,102.322,VALID,0,VALID,24.532,VALID,337,VALID,0.542578,
2010-07-14, 00:54:04,VALID,1009.2,VALID,0,VALID,102.162,VALID,0,VALID,24.5533,VALID,307,VALID,0.00273437,
2010-07-14, 00:55:04,VALID,1009.17,VALID,0,VALID,102.101,VALID,0,VALID,24.532,VALID,304,VALID,0.0210938,
2010-07-14, 00:56:04,VALID,1009.19,VALID,0,VALID,102.094,VALID,0,VALID,24.5301,VALID,304,VALID,0,
2010-07-14, 00:57:04,VALID,1009.19,VALID,0,VALID,102.055,VALID,0.105969,VALID,24.5515,VALID,89,VALID,0.637109,
2010-07-14, 00:58:04,VALID,1009.21,VALID,0,VALID,102.025,VALID,0.105969,VALID,24.5301,VALID,97,VALID,0.290234,
2010-07-14, 00:59:04,VALID,1009.21,VALID,0,VALID,102.086,VALID,0,VALID,24.5905,VALID,150,VALID,1.08828,
2010-07-14, 01:00:04,VALID,1009.19,VALID,0.5,VALID,102.155,VALID,0,VALID,24.532,VALID,180,VALID,1.53633,
2010-07-14, 01:01:04,VALID,1009.23,VALID,0,VALID,102.177,VALID,0,VALID,24.5106,VALID,168,VALID,1.11055,
2010-07-14, 01:02:04,VALID,1009.25,VALID,0,VALID,102.231,VALID,0,VALID,24.5125,VALID,163,VALID,0.846484,
2010-07-14, 01:03:04,VALID,1009.24,VALID,0,VALID,102.292,VALID,0,VALID,24.493,VALID,113,VALID,0.931641,
2010-07-14, 01:04:04,VALID,1009.22,VALID,0.5,VALID,102.391,VALID,0.105969,VALID,24.5125,VALID,89,VALID,1.58242,
2010-07-14, 01:05:04,VALID,1009.19,VALID,1,VALID,102.498,VALID,0,VALID,24.4345,VALID,90,VALID,1.39492,
2010-07-14, 01:06:04,VALID,1009.17,VALID,0.5,VALID,102.566,VALID,0,VALID,24.3761,VALID,86,VALID,1.53477,
2010-07-14, 01:07:04,VALID,1009.17,VALID,0.5,VALID,102.65,VALID,0,VALID,24.3176,VALID,93,VALID,1.07578,
2010-07-14, 01:08:04,VALID,1009.17,VALID,0.5,VALID,102.635,VALID,0,VALID,24.2378,VALID,94,VALID,0.242969,
2010-07-14, 01:09:04,VALID,1009.16,VALID,0.5,VALID,102.681,VALID,0,VALID,24.2396,VALID,40,VALID,0.919922,
2010-07-14, 01:10:04,VALID,1009.17,VALID,0.5,VALID,102.704,VALID,0,VALID,24.1793,VALID,60,VALID,0.568359,
2010-07-14, 01:11:04,VALID,1009.19,VALID,0,VALID,102.727,VALID,0,VALID,24.1422,VALID,9,VALID,0.923437,
2010-07-14, 01:12:04,VALID,1009.15,VALID,0.5,VALID,102.742,VALID,0,VALID,24.1227,VALID,62,VALID,0.855078,
2010-07-14, 01:13:04,VALID,1009.14,VALID,0,VALID,102.727,VALID,0,VALID,24.0837,VALID,28,VALID,0.696094,
2010-07-14, 01:14:04,VALID,1009.17,VALID,0,VALID,102.749,VALID,0,VALID,24.0253,VALID,73,VALID,0.996875,
2010-07-14, 01:15:04,VALID,1009.17,VALID,0,VALID,102.711,VALID,0,VALID,24.0058,VALID,31,VALID,0.964063,
2010-07-14, 01:16:04,VALID,1009.19,VALID,0.5,VALID,102.711,VALID,0,VALID,23.9863,VALID,64,VALID,0.673437,
2010-07-14, 01:17:04,VALID,1009.22,VALID,0,VALID,102.711,VALID,0,VALID,23.9473,VALID,76,VALID,1.56758,
2010-07-14, 01:18:04,VALID,1009.26,VALID,0.5,VALID,102.696,VALID,0,VALID,23.9278,VALID,82,VALID,1.85273,
2010-07-14, 01:19:04,VALID,1009.25,VALID,0,VALID,102.688,VALID,0,VALID,23.8676,VALID,88,VALID,2.14883,
2010-07-14, 01:20:04,VALID,1009.33,VALID,0.5,VALID,102.704,VALID,0,VALID,23.8499,VALID,89,VALID,1.82109,
2010-07-14, 01:21:04,VALID,1009.35,VALID,0.5,VALID,102.666,VALID,0,VALID,23.8499,VALID,59,VALID,0.676953,
2010-07-14, 01:22:04,VALID,1009.37,VALID,0,VALID,102.65,VALID,0,VALID,23.8304,VALID,70,VALID,1.2168,
2010-07-14, 01:23:04,VALID,1009.39,VALID,0,VALID,102.704,VALID,0.105969,VALID,23.7507,VALID,79,VALID,1.48867,
2010-07-14, 01:24:04,VALID,1009.42,VALID,0.5,VALID,102.666,VALID,0,VALID,23.7525,VALID,79,VALID,0.76875,
2010-07-14, 01:25:04,VALID,1009.4,VALID,0,VALID,102.681,VALID,0.105969,VALID,23.6922,VALID,72,VALID,0.838672,
2010-07-14, 01:26:04,VALID,1009.4,VALID,0.5,VALID,102.627,VALID,0,VALID,23.6922,VALID,60,VALID,1.21172,
2010-07-14, 01:27:04,VALID,1009.36,VALID,0,VALID,102.635,VALID,0,VALID,23.6745,VALID,72,VALID,1.16289,
2010-07-14, 01:28:04,VALID,1009.34,VALID,0.5,VALID,102.605,VALID,0,VALID,23.6532,VALID,106,VALID,0.390234,
2010-07-14, 01:29:04,VALID,1009.3,VALID,0,VALID,102.589,VALID,0,VALID,23.6532,VALID,84,VALID,0.467578,
2010-07-14, 01:30:04,VALID,1009.29,VALID,0.5,VALID,102.551,VALID,0,VALID,23.655,VALID,84,VALID,0.549219,
2010-07-14, 01:31:04,VALID,1009.31,VALID,0,VALID,102.551,VALID,0,VALID,23.655,VALID,83,VALID,0.653906,
2010-07-14, 01:32:04,VALID,1009.32,VALID,0,VALID,102.544,VALID,0,VALID,23.6532,VALID,67,VALID,1.00391,
2010-07-14, 01:33:04,VALID,1009.25,VALID,0,VALID,102.528,VALID,0,VALID,23.6338,VALID,78,VALID,1.26289,
2010-07-14, 01:34:04,VALID,1009.24,VALID,0.5,VALID,102.536,VALID,0.105969,VALID,23.6143,VALID,92,VALID,0.907031,
2010-07-14, 01:35:04,VALID,1009.2,VALID,0,VALID,102.467,VALID,0.105969,VALID,23.655,VALID,76,VALID,1.5125,
2010-07-14, 01:36:04,VALID,1009.15,VALID,0,VALID,102.452,VALID,0.105969,VALID,23.6532,VALID,83,VALID,0.65625,
2010-07-14, 01:37:04,VALID,1009.09,VALID,0,VALID,102.406,VALID,0.105969,VALID,23.6727,VALID,101,VALID,1.49609,
2010-07-14, 01:38:04,VALID,1009.07,VALID,0,VALID,102.383,VALID,0.105969,VALID,23.7135,VALID,75,VALID,1.21367,
2010-07-14, 01:39:04,VALID,1009.01,VALID,0,VALID,102.383,VALID,0,VALID,23.7348,VALID,80,VALID,0.865625,
2010-07-14, 01:40:04,VALID,1008.99,VALID,0,VALID,102.406,VALID,0,VALID,23.6745,VALID,333,VALID,1.23633,
2010-07-14, 01:41:04,VALID,1008.97,VALID,0.5,VALID,102.399,VALID,0,VALID,23.6745,VALID,93,VALID,1.38594,
2010-07-14, 01:42:04,VALID,1008.94,VALID,0,VALID,102.444,VALID,0,VALID,23.655,VALID,16,VALID,0.807813,
2010-07-14, 01:43:04,VALID,1008.94,VALID,0.5,VALID,102.391,VALID,0,VALID,23.655,VALID,95,VALID,0.821094,
2010-07-14, 01:44:04,VALID,1008.9,VALID,0,VALID,102.376,VALID,0,VALID,23.6763,VALID,49,VALID,0.524609,
2010-07-14, 01:45:04,VALID,1008.9,VALID,0,VALID,102.391,VALID,0,VALID,23.655,VALID,98,VALID,1.18203,
2010-07-14, 01:46:04,VALID,1008.88,VALID,0,VALID,102.353,VALID,0,VALID,23.6356,VALID,86,VALID,0.551172,
2010-07-14, 01:47:04,VALID,1008.88,VALID,0,VALID,102.36,VALID,0,VALID,23.6568,VALID,96,VALID,1.54141,
2010-07-14, 01:48:04,VALID,1008.88,VALID,0,VALID,102.353,VALID,0,VALID,23.6161,VALID,79,VALID,1.68242,
2010-07-14, 01:49:04,VALID,1008.85,VALID,0,VALID,102.376,VALID,0.105969,VALID,23.5948,VALID,77,VALID,1.50078,
2010-07-14, 01:50:04,VALID,1008.87,VALID,0,VALID,102.345,VALID,0.105969,VALID,23.5948,VALID,102,VALID,1.00625,
2010-07-14, 01:51:04,VALID,1008.85,VALID,0,VALID,102.353,VALID,0.105969,VALID,23.5753,VALID,79,VALID,1.13711,
2010-07-14, 01:52:04,VALID,1008.87,VALID,0,VALID,102.338,VALID,0.105969,VALID,23.5753,VALID,89,VALID,1.16094,
2010-07-14, 01:53:04,VALID,1008.88,VALID,0,VALID,102.307,VALID,0.105969,VALID,23.5753,VALID,56,VALID,0.713672,
2010-07-14, 01:54:04,VALID,1008.94,VALID,0,VALID,102.322,VALID,0.105969,VALID,23.554,VALID,99,VALID,0.835156,
2010-07-14, 01:55:04,VALID,1008.93,VALID,0,VALID,102.322,VALID,0.105969,VALID,23.5558,VALID,89,VALID,0.630859,
2010-07-14, 01:56:04,VALID,1008.95,VALID,0,VALID,102.277,VALID,0,VALID,23.5558,VALID,28,VALID,0.239844,
2010-07-14, 01:57:04,VALID,1008.98,VALID,0,VALID,102.33,VALID,0.105969,VALID,23.5363,VALID,38,VALID,0.763672,
2010-07-14, 01:58:04,VALID,1009.02,VALID,0,VALID,102.307,VALID,0.105969,VALID,23.5169,VALID,54,VALID,0.753906,
2010-07-14, 01:59:04,VALID,1009.04,VALID,0,VALID,102.307,VALID,0.105969,VALID,23.5169,VALID,39,VALID,0.178125,
2010-07-14, 02:00:04,VALID,1009.04,VALID,0,VALID,102.292,VALID,0,VALID,23.5169,VALID,315,VALID,0.644922,
2010-07-14, 02:01:04,VALID,1009.05,VALID,0,VALID,102.261,VALID,0.105969,VALID,23.5169,VALID,4,VALID,0.950781,
2010-07-14, 02:02:04,VALID,1009.03,VALID,0,VALID,102.238,VALID,0.105969,VALID,23.5363,VALID,62,VALID,0.532812,
2010-07-14, 02:03:04,VALID,1009.01,VALID,0,VALID,102.246,VALID,0.105969,VALID,23.5169,VALID,103,VALID,0.448438,
2010-07-14, 02:04:04,VALID,1009,VALID,0,VALID,102.261,VALID,0,VALID,23.4992,VALID,55,VALID,0.478125,
2010-07-14, 02:05:04,VALID,1008.99,VALID,0,VALID,102.246,VALID,0,VALID,23.4992,VALID,91,VALID,0.519922,
2010-07-14, 02:06:04,VALID,1008.99,VALID,0,VALID,102.208,VALID,0,VALID,23.4992,VALID,94,VALID,0.555859,
2010-07-14, 02:07:04,VALID,1009.02,VALID,0,VALID,102.223,VALID,0,VALID,23.4992,VALID,95,VALID,0.457812,
2010-07-14, 02:08:04,VALID,1009.05,VALID,0,VALID,102.216,VALID,0,VALID,23.4992,VALID,74,VALID,0.255078,
2010-07-14, 02:09:04,VALID,1009.04,VALID,0,VALID,102.208,VALID,0,VALID,23.4992,VALID,55,VALID,0.0738281,
2010-07-14, 02:10:04,VALID,1009.05,VALID,0,VALID,102.208,VALID,0,VALID,23.4797,VALID,55,VALID,0.25,
2010-07-14, 02:11:04,VALID,1009.08,VALID,0,VALID,102.216,VALID,0,VALID,23.4797,VALID,55,VALID,0.404687,
2010-07-14, 02:12:04,VALID,1009.09,VALID,0,VALID,102.185,VALID,0,VALID,23.4797,VALID,55,VALID,0.186719,
2010-07-14, 02:13:04,VALID,1009.11,VALID,0,VALID,102.162,VALID,0,VALID,23.4992,VALID,55,VALID,0,
2010-07-14, 02:14:04,VALID,1009.16,VALID,0,VALID,102.147,VALID,0,VALID,23.4992,VALID,55,VALID,0,
2010-07-14, 02:15:04,VALID,1009.18,VALID,0,VALID,102.124,VALID,0,VALID,23.5381,VALID,55,VALID,0,
2010-07-14, 02:16:04,VALID,1009.22,VALID,0,VALID,102.147,VALID,0,VALID,23.4992,VALID,297,VALID,0.508984,
2010-07-14, 02:17:04,VALID,1009.22,VALID,0,VALID,102.147,VALID,0,VALID,23.4992,VALID,11,VALID,0.147266,
2010-07-14, 02:18:04,VALID,1009.2,VALID,0,VALID,102.147,VALID,0,VALID,23.5009,VALID,12,VALID,0.138281,
2010-07-14, 02:19:04,VALID,1009.23,VALID,0,VALID,102.139,VALID,0,VALID,23.5009,VALID,1,VALID,0,
2010-07-14, 02:20:04,VALID,1009.23,VALID,0,VALID,102.139,VALID,0,VALID,23.4992,VALID,353,VALID,0.0253906,
2010-07-14, 02:21:04,VALID,1009.21,VALID,0,VALID,102.132,VALID,0,VALID,23.4797,VALID,303,VALID,0.699609,
2010-07-14, 02:22:04,VALID,1009.22,VALID,0,VALID,102.132,VALID,0,VALID,23.4602,VALID,357,VALID,0.220313,
2010-07-14, 02:23:04,VALID,1009.22,VALID,0,VALID,102.139,VALID,0,VALID,23.4602,VALID,342,VALID,0.176953,
2010-07-14, 02:24:04,VALID,1009.22,VALID,0,VALID,102.116,VALID,0,VALID,23.4815,VALID,314,VALID,0.148828,
2010-07-14, 02:25:04,VALID,1009.22,VALID,0,VALID,102.124,VALID,0,VALID,23.4815,VALID,22,VALID,0.183594,
2010-07-14, 02:26:04,VALID,1009.19,VALID,0,VALID,102.078,VALID,0,VALID,23.4602,VALID,352,VALID,0.375391,
2010-07-14, 02:27:04,VALID,1009.17,VALID,0,VALID,102.101,VALID,0,VALID,23.4602,VALID,59,VALID,0.666016,
2010-07-14, 02:28:04,VALID,1009.16,VALID,0,VALID,102.139,VALID,0,VALID,23.4212,VALID,331,VALID,0.638672,
2010-07-14, 02:29:04,VALID,1009.18,VALID,0,VALID,102.109,VALID,0,VALID,23.4425,VALID,39,VALID,0.405078,
2010-07-14, 02:30:04,VALID,1009.15,VALID,0,VALID,102.116,VALID,0,VALID,23.4425,VALID,95,VALID,0.267188,
2010-07-14, 02:31:04,VALID,1009.15,VALID,0,VALID,102.109,VALID,0,VALID,23.4017,VALID,103,VALID,0.435547,
2010-07-14, 02:32:04,VALID,1009.18,VALID,0,VALID,102.101,VALID,0,VALID,23.423,VALID,257,VALID,0.198047,
2010-07-14, 02:33:04,VALID,1009.17,VALID,0,VALID,102.071,VALID,0,VALID,23.4407,VALID,269,VALID,0.0230469,
2010-07-14, 02:34:04,VALID,1009.18,VALID,0,VALID,102.048,VALID,0,VALID,23.4212,VALID,54,VALID,0.0902344,
2010-07-14, 02:35:04,VALID,1009.17,VALID,0,VALID,102.048,VALID,0,VALID,23.4407,VALID,54,VALID,0.0234375,
2010-07-14, 02:36:04,VALID,1009.17,VALID,0,VALID,102.055,VALID,0,VALID,23.4212,VALID,360,VALID,0.449609,
2010-07-14, 02:37:04,VALID,1009.16,VALID,0,VALID,102.063,VALID,0,VALID,23.4017,VALID,28,VALID,0.370703,
2010-07-14, 02:38:04,VALID,1009.16,VALID,0,VALID,102.055,VALID,0,VALID,23.4017,VALID,278,VALID,0.364062,
2010-07-14, 02:39:04,VALID,1009.16,VALID,0,VALID,102.033,VALID,0,VALID,23.423,VALID,330,VALID,0.367969,
2010-07-14, 02:40:04,VALID,1009.16,VALID,0,VALID,102.033,VALID,0,VALID,23.4212,VALID,328,VALID,0,
2010-07-14, 02:41:04,VALID,1009.17,VALID,0,VALID,102.002,VALID,0,VALID,23.4407,VALID,328,VALID,0,
2010-07-14, 02:42:04,VALID,1009.15,VALID,0,VALID,102.002,VALID,0,VALID,23.462,VALID,328,VALID,0,
2010-07-14, 02:43:04,VALID,1009.13,VALID,0,VALID,101.979,VALID,0,VALID,23.4815,VALID,348,VALID,0,
2010-07-14, 02:44:04,VALID,1009.16,VALID,0,VALID,101.979,VALID,0,VALID,23.4602,VALID,346,VALID,0,
2010-07-14, 02:45:04,VALID,1009.19,VALID,0,VALID,101.994,VALID,0,VALID,23.4407,VALID,29,VALID,0.174219,
2010-07-14, 02:46:04,VALID,1009.19,VALID,0,VALID,101.979,VALID,0,VALID,23.4602,VALID,105,VALID,0.767187,
2010-07-14, 02:47:04,VALID,1009.19,VALID,0,VALID,101.972,VALID,0,VALID,23.4602,VALID,78,VALID,0.678516,
2010-07-14, 02:48:04,VALID,1009.18,VALID,0,VALID,101.964,VALID,0,VALID,23.4815,VALID,78,VALID,0.241797,
2010-07-14, 02:49:04,VALID,1009.18,VALID,0,VALID,101.979,VALID,0,VALID,23.4797,VALID,82,VALID,0.735937,
2010-07-14, 02:50:04,VALID,1009.16,VALID,0,VALID,101.987,VALID,0.105969,VALID,23.4372,VALID,82,VALID,0.589453,
2010-07-14, 02:51:04,VALID,1009.17,VALID,0,VALID,101.979,VALID,0.105969,VALID,23.4602,VALID,82,VALID,0.272656,
2010-07-14, 02:52:04,VALID,1009.16,VALID,0,VALID,101.941,VALID,0.105969,VALID,23.4584,VALID,82,VALID,0,
2010-07-14, 02:53:04,VALID,1009.17,VALID,0,VALID,101.933,VALID,0.105969,VALID,23.4779,VALID,101,VALID,0.389844,
2010-07-14, 02:54:04,VALID,1009.15,VALID,0,VALID,101.949,VALID,0,VALID,23.4797,VALID,101,VALID,0.303125,
2010-07-14, 02:55:04,VALID,1009.1,VALID,0,VALID,101.949,VALID,0.105969,VALID,23.4797,VALID,101,VALID,0.241797,
2010-07-14, 02:56:04,VALID,1009.11,VALID,0,VALID,101.956,VALID,0,VALID,23.4797,VALID,100,VALID,0.383203,
2010-07-14, 02:57:04,VALID,1009.11,VALID,0,VALID,101.949,VALID,0,VALID,23.4389,VALID,47,VALID,0.480469,
2010-07-14, 02:58:04,VALID,1009.11,VALID,0,VALID,101.949,VALID,0.105969,VALID,23.4389,VALID,43,VALID,0.326953,
2010-07-14, 02:59:04,VALID,1009.07,VALID,0,VALID,101.941,VALID,0.105969,VALID,23.4797,VALID,43,VALID,0,
2010-07-14, 03:00:04,VALID,1009.06,VALID,0,VALID,101.918,VALID,0.105969,VALID,23.4779,VALID,44,VALID,0,
2010-07-14, 03:01:04,VALID,1009.04,VALID,0,VALID,101.895,VALID,0.105969,VALID,23.4779,VALID,43,VALID,0.187891,
2010-07-14, 03:02:04,VALID,1009.03,VALID,0,VALID,101.918,VALID,0.105969,VALID,23.4779,VALID,43,VALID,0,
2010-07-14, 03:03:04,VALID,1009,VALID,0,VALID,101.933,VALID,0.105969,VALID,23.4779,VALID,360,VALID,0,
2010-07-14, 03:04:04,VALID,1008.98,VALID,0,VALID,101.949,VALID,0,VALID,23.4407,VALID,360,VALID,0,
2010-07-14, 03:05:04,VALID,1009,VALID,0,VALID,101.941,VALID,0,VALID,23.4407,VALID,360,VALID,0,
2010-07-14, 03:06:04,VALID,1008.94,VALID,0,VALID,101.911,VALID,0,VALID,23.4815,VALID,360,VALID,0.282422,
2010-07-14, 03:07:04,VALID,1008.94,VALID,0,VALID,101.895,VALID,0,VALID,23.4992,VALID,360,VALID,0.219922,
2010-07-14, 03:08:04,VALID,1008.93,VALID,0,VALID,101.857,VALID,0,VALID,23.4992,VALID,360,VALID,0,
2010-07-14, 03:09:04,VALID,1008.92,VALID,0,VALID,101.88,VALID,0,VALID,23.5204,VALID,360,VALID,0.132031,
2010-07-14, 03:10:04,VALID,1008.93,VALID,0,VALID,101.857,VALID,0,VALID,23.5186,VALID,360,VALID,0.329297,
2010-07-14, 03:11:04,VALID,1008.92,VALID,0,VALID,101.88,VALID,0,VALID,23.4992,VALID,360,VALID,0.238672,
2010-07-14, 03:12:04,VALID,1008.91,VALID,0,VALID,101.88,VALID,0,VALID,23.5009,VALID,360,VALID,0,
2010-07-14, 03:13:04,VALID,1008.94,VALID,0,VALID,101.88,VALID,0,VALID,23.4992,VALID,360,VALID,0,
2010-07-14, 03:14:04,VALID,1008.97,VALID,0,VALID,101.865,VALID,0,VALID,23.5186,VALID,360,VALID,0,
2010-07-14, 03:15:04,VALID,1008.96,VALID,0,VALID,101.85,VALID,0,VALID,23.5186,VALID,360,VALID,0,
2010-07-14, 03:16:04,VALID,1008.98,VALID,0,VALID,101.827,VALID,0,VALID,23.5186,VALID,360,VALID,0,
2010-07-14, 03:17:04,VALID,1008.96,VALID,0,VALID,101.85,VALID,0,VALID,23.5594,VALID,360,VALID,0,
2010-07-14, 03:18:04,VALID,1008.95,VALID,0,VALID,101.819,VALID,0,VALID,23.5576,VALID,360,VALID,0,
2010-07-14, 03:19:04,VALID,1008.98,VALID,0,VALID,101.819,VALID,0,VALID,23.5576,VALID,360,VALID,0,
2010-07-14, 03:20:04,VALID,1008.95,VALID,0,VALID,101.796,VALID,0,VALID,23.5984,VALID,360,VALID,0,
2010-07-14, 03:21:04,VALID,1008.94,VALID,0,VALID,101.796,VALID,0,VALID,23.6179,VALID,360,VALID,0,
2010-07-14, 03:22:04,VALID,1008.99,VALID,0,VALID,101.811,VALID,0,VALID,23.5771,VALID,360,VALID,0,
2010-07-14, 03:23:04,VALID,1008.97,VALID,0,VALID,101.789,VALID,0,VALID,23.6179,VALID,360,VALID,0,
2010-07-14, 03:24:04,VALID,1008.97,VALID,0,VALID,101.773,VALID,0,VALID,23.6161,VALID,360,VALID,0,
2010-07-14, 03:25:04,VALID,1008.97,VALID,0,VALID,101.781,VALID,0,VALID,23.6161,VALID,360,VALID,0.285937,
2010-07-14, 03:26:04,VALID,1008.97,VALID,0,VALID,101.773,VALID,0,VALID,23.6568,VALID,360,VALID,0,
2010-07-14, 03:27:04,VALID,1009,VALID,0,VALID,101.766,VALID,0,VALID,23.6356,VALID,360,VALID,0,
2010-07-14, 03:28:04,VALID,1009,VALID,0,VALID,101.796,VALID,0,VALID,23.6161,VALID,360,VALID,0.151953,
2010-07-14, 03:29:04,VALID,1009.01,VALID,0,VALID,101.789,VALID,0,VALID,23.6161,VALID,360,VALID,0.00234375,
2010-07-14, 03:30:04,VALID,1009.01,VALID,0,VALID,101.781,VALID,0,VALID,23.6373,VALID,360,VALID,0,
2010-07-14, 03:31:04,VALID,1009.03,VALID,0,VALID,101.758,VALID,0,VALID,23.6356,VALID,307,VALID,0.162109,
2010-07-14, 03:32:04,VALID,1009.03,VALID,0,VALID,101.773,VALID,0,VALID,23.655,VALID,307,VALID,0,
2010-07-14, 03:33:04,VALID,1009.04,VALID,0,VALID,101.743,VALID,0,VALID,23.655,VALID,307,VALID,0.00117188,
2010-07-14, 03:34:04,VALID,1009,VALID,0,VALID,101.789,VALID,0,VALID,23.6568,VALID,11,VALID,0.307813,
2010-07-14, 03:35:04,VALID,1008.97,VALID,0,VALID,101.773,VALID,0,VALID,23.6568,VALID,309,VALID,0.25,
2010-07-14, 03:36:04,VALID,1008.95,VALID,0,VALID,101.766,VALID,0,VALID,23.6356,VALID,322,VALID,0.328125,
2010-07-14, 03:37:04,VALID,1008.94,VALID,0,VALID,101.758,VALID,0,VALID,23.655,VALID,323,VALID,0.139453,
2010-07-14, 03:38:04,VALID,1008.91,VALID,0,VALID,101.743,VALID,0,VALID,23.6745,VALID,281,VALID,0.409375,
2010-07-14, 03:39:04,VALID,1008.9,VALID,0,VALID,101.773,VALID,0,VALID,23.6356,VALID,340,VALID,0.79375,
2010-07-14, 03:40:04,VALID,1008.89,VALID,0,VALID,101.781,VALID,0,VALID,23.6356,VALID,327,VALID,0.322266,
2010-07-14, 03:41:04,VALID,1008.91,VALID,0,VALID,101.796,VALID,0,VALID,23.6356,VALID,5,VALID,0.699609,
2010-07-14, 03:42:04,VALID,1008.89,VALID,0,VALID,101.773,VALID,0,VALID,23.6568,VALID,354,VALID,0.270312,
2010-07-14, 03:43:04,VALID,1008.88,VALID,0,VALID,101.766,VALID,0,VALID,23.6356,VALID,347,VALID,0.50625,
2010-07-14, 03:44:04,VALID,1008.85,VALID,0,VALID,101.773,VALID,0,VALID,23.6356,VALID,350,VALID,0,
2010-07-14, 03:45:04,VALID,1008.85,VALID,0,VALID,101.743,VALID,0,VALID,23.6356,VALID,350,VALID,0,